Hourly Data Report for September 26, 2017

All times are specified in Local Standard Time (LST). Add 1 hour to adjust for Daylight Saving Time where and when it is observed.

BAKER LAKE A
NUNAVUT

64°17'56.000" N
96°04'40.000" W
18.60 m
2300503
71926
YBK

Download Data

Hourly Data (September 2017)
Hourly Data Report for September 26, 2017
Temp Definition
°C
Dew Point Temp Definition
°C
Rel Hum Definition
%
Wind Dir Definition
10's deg

Wind Spd Definition
km/h
Visibility Definition
km
Stn Press Definition
kPa
Hmdx Definition


Wind Chill Definition


Weather Definition


TIME
00:00 Legend Double Dagger 4.5 1.7 82 21 11 24.1 101.33     Cloudy
01:00 Legend Double Dagger 4.6 1.6 81 18 16 24.1 101.27     LegendNANA
02:00 Legend Double Dagger 4.9 2.9 87 19 9 24.1 101.23     Snow
03:00 Legend Double Dagger 4.8 3.2 89 18 13 24.1 101.20     Snow
04:00 Legend Double Dagger 4.5 2.8 88 18 17 24.1 101.18     LegendNANA
05:00 Legend Double Dagger 4.3 2.6 89 19 23 24.1 101.14     LegendNANA
06:00 Legend Double Dagger 2.8 1.8 93 20 16 40.2 101.12     Mostly Cloudy
07:00 Legend Double Dagger 2.7 1.8 94 20 17 40.2 101.11     LegendNANA
08:00 Legend Double Dagger 4.0 2.4 89 17 16 32.2 101.13     LegendNANA
09:00 Legend Double Dagger 4.9 2.9 87 17 16 32.2 101.08     Mostly Cloudy
10:00 Legend Double Dagger 6.1 3.4 83 17 14 32.2 101.07     LegendNANA
11:00 Legend Double Dagger 7.5 4.4 81 13 17 32.2 101.03     LegendNANA
12:00 Legend Double Dagger 8.0 4.8 80 15 12 32.2 100.99     Mostly Cloudy
13:00 Legend Double Dagger 9.7 4.7 71 15 16 32.2 100.96     LegendNANA
14:00 Legend Double Dagger 9.9 5.3 73 13 15 32.2 100.92     LegendNANA
15:00 Legend Double Dagger 10.8 5.0 67 16 8 32.2 100.88     Mostly Cloudy
16:00 Legend Double Dagger 9.6 5.8 77 7 5 32.2 100.85     LegendNANA
17:00 Legend Double Dagger 10.1 5.5 73 18 13 32.2 100.83     LegendNANA
18:00 Legend Double Dagger 8.1 5.5 83 15 11 32.2 100.82     Mostly Cloudy
19:00 Legend Double Dagger 5.9 4.4 90 22 4 32.2 100.83     LegendNANA
20:00 Legend Double Dagger 6.6 4.1 84 22 7 24.1 100.82     LegendNANA
21:00 Legend Double Dagger 6.5 4.2 85 19 12 24.1 100.81     Mostly Cloudy
22:00 Legend Double Dagger 3.9 2.8 93 27 7 24.1 100.83     LegendNANA
23:00 Legend Double Dagger 4.7 3.5 92 16 7 24.1 100.85     LegendNANA

Notes on Data Quality.

Legend

  • E = Estimated
  • M = Missing
  • NA = Not Available
  • ‡ = Partner data that is not subject to review by the National Climate Archives
Date modified: